Location: Observatoire
(46.1952°N, 5.3391°E)
Time: 11:41:28
(UTC+02:00)

CUTE 1.7 + AOD 2 - Pass Details

Date: 25 April 2024
Orbit: 569 x 586 km, 97.8° (Epoch: 29 May)

Event Time Altitude Azimuth Distance (km) Brightness Sun altitude
Rises 05:30:31 0° 10° (N) 2,789 ? -10.7°
Reaches altitude 10° 05:32:41 10° 8° (N) 1,884 ? -10.4°
Maximum altitude 05:36:43 66° 286° (WNW) 626 ? -9.8°
Drops below altitude 10° 05:40:43 10° 204° (SSW) 1,865 ? -9.2°
Enters shadow 05:41:25 - 203° (SSW) 2,150 ? -9.1°
